Location: Laguna de la Cañada del Gallo
(40.3974°N, 5.2096°W)
Time: 02:56:49
(UTC+00:00)

Cosmos 2263 Rocket - Pass Details

Date: 18 April 2024
Orbit: 824 x 846 km, 71.0° (Epoch: 25 May)

Event Time Altitude Azimuth Distance (km) Brightness Sun altitude
Rises 20:58:11 0° 353° (N) 3,390 6.0 -20.4°
Reaches altitude 10° 21:02:43 10° 26° (NNE) 2,445 4.7 -21.1°
Maximum altitude 21:04:27 11° 45° (NE) 2,345 4.4 -21.4°
Enters shadow 21:05:52 10° 60° (ENE) 2,407 4.3 -21.6°
